Time,TemperatureF,DewpointF,PressureIn,WindDirection,WindDirectionDegrees,WindSpeedMPH,WindSpeedGustMPH,Humidity,HourlyPrecipIn,Conditions,Clouds,dailyrainin,SolarRadiationWatts/m^2,SoftwareType,DateUTC
2013-02-17 00:00:00,28.9,16.4,29.78,NNW,343,10.0,10.0,59,0.00,BKN,,0.01,0.0,WeatherDisplay:10.37,2013-02-17 05:00:00,
2013-02-17 00:01:00,28.8,16.6,29.78,NNW,327,10.4,10.4,60,0.00,RA,,0.00,0.0,WeatherDisplay:10.37,2013-02-17 05:01:00,
2013-02-17 00:06:00,28.8,15.9,29.78,NNW,336,15.0,15.0,58,0.00,RA,,0.00,0.0,WeatherDisplay:10.37,2013-02-17 05:06:00,
2013-02-17 00:11:00,28.7,15.0,29.78,NW,311,9.2,9.2,56,0.00,RA,,0.00,0.0,WeatherDisplay:10.37,2013-02-17 05:11:00,
2013-02-17 00:16:00,28.7,14.6,29.78,NNW,340,10.4,10.4,55,0.00,RA,,0.00,0.0,WeatherDisplay:10.37,2013-02-17 05:16:00,
2013-02-17 00:21:00,28.5,14.8,29.78,NNW,336,16.0,16.0,56,0.00,RA,,0.00,0.0,WeatherDisplay:10.37,2013-02-17 05:21:00,
2013-02-17 00:26:00,28.4,15.1,29.78,NW,311,12.7,12.7,57,0.00,RA,,0.00,0.0,WeatherDisplay:10.37,2013-02-17 05:26:00,
2013-02-17 00:31:00,28.3,15.0,29.77,NNW,342,9.2,9.2,57,0.00,RA,,0.00,0.0,WeatherDisplay:10.37,2013-02-17 05:31:00,
2013-02-17 00:36:00,28.3,14.6,29.77,NNW,336,5.8,5.8,56,0.00,RA,,0.00,0.0,WeatherDisplay:10.37,2013-02-17 05:36:00,
2013-02-17 00:41:00,28.3,15.0,29.77,NW,323,5.8,5.8,57,0.00,RA,,0.00,0.0,WeatherDisplay:10.37,2013-02-17 05:41:00,
2013-02-17 00:46:00,28.2,15.3,29.77,NNW,330,9.2,9.2,58,0.00,RA,,0.00,0.0,WeatherDisplay:10.37,2013-02-17 05:46:00,
2013-02-17 00:51:00,28.1,15.2,29.77,NNW,338,10.4,10.4,58,0.00,RA,,0.00,0.0,WeatherDisplay:10.37,2013-02-17 05:51:00,
2013-02-17 00:56:00,28.1,15.2,29.77,NNW,340,10.4,10.4,58,0.00,RA,,0.00,0.0,WeatherDisplay:10.37,2013-02-17 05:56:00,
2013-02-17 01:01:00,28.1,15.2,29.77,NW,309,9.2,9.2,58,0.00,OVC,,0.00,0.0,WeatherDisplay:10.37,2013-02-17 06:01:00,
2013-02-17 01:06:00,28.0,15.1,29.77,NNW,348,3.5,3.5,58,0.00,OVC,,0.00,0.0,WeatherDisplay:10.37,2013-02-17 06:06:00,
2013-02-17 01:11:00,28.0,15.1,29.77,NNW,333,9.2,9.2,58,0.00,OVC,,0.00,0.0,WeatherDisplay:10.37,2013-02-17 06:11:00,
2013-02-17 01:16:00,28.0,15.5,29.77,NNW,330,10.4,10.4,59,0.00,OVC,,0.00,0.0,WeatherDisplay:10.37,2013-02-17 06:16:00,
2013-02-17 01:21:00,27.9,15.8,29.77,NNW,337,10.4,10.4,60,0.00,OVC,,0.00,0.0,WeatherDisplay:10.37,2013-02-17 06:21:00,
2013-02-17 01:26:00,27.9,16.6,29.77,NW,307,8.1,8.1,62,0.00,OVC,,0.00,0.0,WeatherDisplay:10.37,2013-02-17 06:26:00,
2013-02-17 01:31:00,27.8,16.8,29.77,NNW,336,9.2,9.2,63,0.00,OVC,,0.00,0.0,WeatherDisplay:10.37,2013-02-17 06:31:00,
2013-02-17 01:36:00,27.8,16.5,29.77,NNW,342,12.7,12.7,62,0.00,OVC,,0.00,0.0,WeatherDisplay:10.37,2013-02-17 06:36:00,
2013-02-17 01:41:00,27.8,15.7,29.78,NW,324,9.2,9.2,60,0.00,OVC,,0.00,0.0,WeatherDisplay:10.37,2013-02-17 06:41:00,
2013-02-17 01:46:00,27.8,14.9,29.78,NW,309,10.4,10.4,58,0.00,OVC,,0.00,0.0,WeatherDisplay:10.37,2013-02-17 06:46:00,
2013-02-17 01:51:00,27.7,14.8,29.77,NNW,344,9.2,9.2,58,0.00,OVC,,0.00,0.0,WeatherDisplay:10.37,2013-02-17 06:51:00,
2013-02-17 01:56:00,27.6,15.1,29.77,NW,315,8.1,8.1,59,0.00,OVC,,0.00,0.0,WeatherDisplay:10.37,2013-02-17 06:56:00,
2013-02-17 02:01:00,27.6,15.1,29.77,NW,323,11.5,11.5,59,0.00,CLR,,0.00,0.0,WeatherDisplay:10.37,2013-02-17 07:01:00,
2013-02-17 02:06:00,27.6,14.7,29.77,NNW,345,9.0,9.0,58,0.00,CLR,,0.00,0.0,WeatherDisplay:10.37,2013-02-17 07:06:00,
2013-02-17 02:11:00,27.5,14.2,29.77,NNW,329,9.2,9.2,57,0.00,CLR,,0.00,0.0,WeatherDisplay:10.37,2013-02-17 07:11:00,
2013-02-17 02:16:00,27.5,14.2,29.77,NW,313,10.4,10.4,57,0.00,CLR,,0.00,0.0,WeatherDisplay:10.37,2013-02-17 07:16:00,
2013-02-17 02:21:00,27.4,14.1,29.77,NW,318,9.2,9.2,57,0.00,CLR,,0.00,0.0,WeatherDisplay:10.37,2013-02-17 07:21:00,
2013-02-17 02:26:00,27.4,14.1,29.77,NW,319,10.4,10.4,57,0.00,CLR,,0.00,0.0,WeatherDisplay:10.37,2013-02-17 07:26:00,
2013-02-17 02:31:00,27.3,14.5,29.77,NNW,339,9.2,9.2,58,0.00,CLR,,0.00,0.0,WeatherDisplay:10.37,2013-02-17 07:31:00,
2013-02-17 02:36:00,27.2,14.0,29.77,NNW,332,12.7,12.7,57,0.00,CLR,,0.00,0.0,WeatherDisplay:10.37,2013-02-17 07:36:00,
2013-02-17 02:41:00,27.1,13.5,29.77,NNW,334,13.8,13.8,56,0.00,CLR,,0.00,0.0,WeatherDisplay:10.37,2013-02-17 07:41:00,
2013-02-17 02:46:00,27.0,13.8,29.77,NW,319,9.2,9.2,57,0.00,CLR,,0.00,0.0,WeatherDisplay:10.37,2013-02-17 07:46:00,
2013-02-17 02:51:00,27.0,13.8,29.77,NW,315,11.5,11.5,57,0.00,CLR,,0.00,0.0,WeatherDisplay:10.37,2013-02-17 07:51:00,
2013-02-17 02:56:00,27.0,13.4,29.77,NW,304,11.5,11.5,56,0.00,CLR,,0.00,0.0,WeatherDisplay:10.37,2013-02-17 07:56:00,
2013-02-17 03:01:00,27.0,13.8,29.77,NW,313,12.7,12.7,57,0.00,CLR,,0.00,0.0,WeatherDisplay:10.37,2013-02-17 08:01:00,
2013-02-17 03:06:00,26.9,13.7,29.77,WNW,296,9.2,9.2,57,0.00,CLR,,0.00,0.0,WeatherDisplay:10.37,2013-02-17 08:06:00,
2013-02-17 03:11:00,26.9,13.7,29.77,NW,314,9.2,9.2,57,0.00,CLR,,0.00,0.0,WeatherDisplay:10.37,2013-02-17 08:11:00,
2013-02-17 03:16:00,26.8,14.0,29.77,NW,309,8.0,8.0,58,0.00,CLR,,0.00,0.0,WeatherDisplay:10.37,2013-02-17 08:16:00,
2013-02-17 03:21:00,26.7,13.9,29.76,NW,313,9.2,9.2,58,0.00,CLR,,0.00,0.0,WeatherDisplay:10.37,2013-02-17 08:21:00,
2013-02-17 03:26:00,26.7,13.5,29.76,NW,309,12.7,12.7,57,0.00,CLR,,0.00,0.0,WeatherDisplay:10.37,2013-02-17 08:26:00,
2013-02-17 03:31:00,26.6,13.4,29.77,WNW,301,11.0,11.0,57,0.00,CLR,,0.00,0.0,WeatherDisplay:10.37,2013-02-17 08:31:00,
2013-02-17 03:36:00,26.6,13.4,29.77,NW,307,10.4,10.4,57,0.00,CLR,,0.00,0.0,WeatherDisplay:10.37,2013-02-17 08:36:00,
2013-02-17 03:41:00,26.5,13.3,29.77,NW,309,12.7,12.7,57,0.00,CLR,,0.00,0.0,WeatherDisplay:10.37,2013-02-17 08:41:00,
2013-02-17 03:46:00,26.3,13.5,29.77,NW,309,14.0,14.0,58,0.00,CLR,,0.00,0.0,WeatherDisplay:10.37,2013-02-17 08:46:00,
2013-02-17 03:51:00,26.3,13.1,29.77,NW,305,9.2,9.2,57,0.00,CLR,,0.00,0.0,WeatherDisplay:10.37,2013-02-17 08:51:00,
2013-02-17 03:56:00,26.3,13.1,29.77,NW,307,9.2,9.2,57,0.00,CLR,,0.00,0.0,WeatherDisplay:10.37,2013-02-17 08:56:00,
2013-02-17 04:01:00,26.2,13.4,29.77,NW,318,13.0,13.0,58,0.00,CLR,,0.00,0.0,WeatherDisplay:10.37,2013-02-17 09:01:00,
2013-02-17 04:06:00,26.1,13.3,29.77,NW,313,10.4,10.4,58,0.00,CLR,,0.00,0.0,WeatherDisplay:10.37,2013-02-17 09:06:00,
2013-02-17 04:11:00,25.9,13.5,29.77,NNW,339,11.5,11.5,59,0.00,CLR,,0.00,0.0,WeatherDisplay:10.37,2013-02-17 09:11:00,
2013-02-17 04:16:00,25.8,13.4,29.77,NW,304,10.4,10.4,59,0.00,CLR,,0.00,0.0,WeatherDisplay:10.37,2013-02-17 09:16:00,
2013-02-17 04:21:00,25.7,13.3,29.77,NW,315,11.5,11.5,59,0.00,CLR,,0.00,0.0,WeatherDisplay:10.37,2013-02-17 09:21:00,
2013-02-17 04:26:00,25.7,13.3,29.77,NW,310,12.7,12.7,59,0.00,CLR,,0.00,0.0,WeatherDisplay:10.37,2013-02-17 09:26:00,
2013-02-17 04:31:00,25.6,13.6,29.77,NW,306,11.5,11.5,60,0.00,CLR,,0.00,0.0,WeatherDisplay:10.37,2013-02-17 09:31:00,
2013-02-17 04:36:00,25.6,13.6,29.77,NW,325,11.5,11.5,60,0.00,CLR,,0.00,0.0,WeatherDisplay:10.37,2013-02-17 09:36:00,
2013-02-17 04:41:00,25.4,13.8,29.77,WNW,303,15.0,15.0,61,0.00,CLR,,0.00,0.0,WeatherDisplay:10.37,2013-02-17 09:41:00,
2013-02-17 04:46:00,25.3,14.1,29.77,NW,316,9.2,9.2,62,0.00,CLR,,0.00,0.0,WeatherDisplay:10.37,2013-02-17 09:46:00,
2013-02-17 04:51:00,25.2,14.0,29.77,NW,309,9.2,9.2,62,0.00,CLR,,0.00,0.0,WeatherDisplay:10.37,2013-02-17 09:51:00,
2013-02-17 04:57:00,25.2,14.4,29.77,NW,311,11.5,11.5,63,0.00,CLR,,0.00,0.0,WeatherDisplay:10.37,2013-02-17 09:57:00,
2013-02-17 05:02:00,25.1,14.3,29.77,WNW,288,10.4,10.4,63,0.00,CLR,,0.00,0.0,WeatherDisplay:10.37,2013-02-17 10:02:00,
2013-02-17 05:07:00,25.0,14.2,29.77,NW,304,11.5,11.5,63,0.00,CLR,,0.00,0.0,WeatherDisplay:10.37,2013-02-17 10:07:00,
2013-02-17 05:12:00,25.0,14.5,29.77,NW,309,13.0,13.0,64,0.00,CLR,,0.00,0.0,WeatherDisplay:10.37,2013-02-17 10:12:00,
2013-02-17 05:17:00,24.9,14.4,29.77,NW,306,11.5,11.5,64,0.00,CLR,,0.00,0.0,WeatherDisplay:10.37,2013-02-17 10:17:00,
2013-02-17 05:22:00,24.8,14.3,29.77,NW,311,11.5,11.5,64,0.00,CLR,,0.00,0.0,WeatherDisplay:10.37,2013-02-17 10:22:00,
2013-02-17 05:27:00,24.7,13.9,29.77,WNW,293,15.0,15.0,63,0.00,CLR,,0.00,0.0,WeatherDisplay:10.37,2013-02-17 10:27:00,
2013-02-17 05:32:00,24.7,13.9,29.77,NW,313,13.8,13.8,63,0.00,CLR,,0.00,0.0,WeatherDisplay:10.37,2013-02-17 10:32:00,
2013-02-17 05:37:00,24.6,14.1,29.77,NW,304,11.5,11.5,64,0.00,CLR,,0.00,0.0,WeatherDisplay:10.37,2013-02-17 10:37:00,
2013-02-17 05:42:00,24.6,13.8,29.77,WNW,299,11.5,11.5,63,0.00,CLR,,0.00,0.0,WeatherDisplay:10.37,2013-02-17 10:42:00,
2013-02-17 05:47:00,24.5,14.1,29.78,NW,310,11.5,11.5,64,0.00,CLR,,0.00,0.0,WeatherDisplay:10.37,2013-02-17 10:47:00,
2013-02-17 05:52:00,24.4,14.0,29.78,NW,305,13.8,13.8,64,0.00,CLR,,0.00,0.0,WeatherDisplay:10.37,2013-02-17 10:52:00,
2013-02-17 05:57:00,24.3,13.9,29.78,NW,304,11.5,11.5,64,0.00,CLR,,0.00,0.0,WeatherDisplay:10.37,2013-02-17 10:57:00,
2013-02-17 06:02:00,24.3,13.9,29.78,WNW,303,12.7,12.7,64,0.00,CLR,,0.00,0.0,WeatherDisplay:10.37,2013-02-17 11:02:00,
2013-02-17 06:07:00,24.3,13.9,29.78,NW,306,11.5,11.5,64,0.00,CLR,,0.00,0.0,WeatherDisplay:10.37,2013-02-17 11:07:00,
2013-02-17 06:12:00,24.2,13.8,29.78,NW,316,11.5,11.5,64,0.00,CLR,,0.00,0.0,WeatherDisplay:10.37,2013-02-17 11:12:00,
2013-02-17 06:17:00,24.2,14.1,29.78,NW,305,13.8,13.8,65,0.00,CLR,,0.00,0.0,WeatherDisplay:10.37,2013-02-17 11:17:00,
2013-02-17 06:22:00,24.1,14.0,29.78,WNW,291,11.5,11.5,65,0.00,CLR,,0.00,0.0,WeatherDisplay:10.37,2013-02-17 11:22:00,
2013-02-17 06:27:00,24.0,13.9,29.78,WNW,300,13.8,13.8,65,0.00,CLR,,0.00,0.0,WeatherDisplay:10.37,2013-02-17 11:27:00,
2013-02-17 06:32:00,24.0,13.9,29.78,WNW,294,12.7,12.7,65,0.00,CLR,,0.00,0.0,WeatherDisplay:10.37,2013-02-17 11:32:00,
2013-02-17 06:37:00,23.9,14.2,29.78,NW,319,11.5,11.5,66,0.00,CLR,,0.00,0.0,WeatherDisplay:10.37,2013-02-17 11:37:00,
2013-02-17 06:42:00,23.9,14.2,29.78,NW,316,11.5,11.5,66,0.00,CLR,,0.00,0.0,WeatherDisplay:10.37,2013-02-17 11:42:00,
2013-02-17 06:47:00,23.9,14.2,29.78,WNW,296,13.8,13.8,66,0.00,CLR,,0.00,0.0,WeatherDisplay:10.37,2013-02-17 11:47:00,
2013-02-17 06:52:00,23.8,14.1,29.79,NW,321,11.5,11.5,66,0.00,CLR,,0.00,0.0,WeatherDisplay:10.37,2013-02-17 11:52:00,
2013-02-17 06:57:00,23.8,14.4,29.79,WNW,290,9.0,9.0,67,0.00,CLR,,0.00,0.0,WeatherDisplay:10.37,2013-02-17 11:57:00,
2013-02-17 07:02:00,23.7,14.3,29.79,WNW,303,11.5,11.5,67,0.00,CLR,,0.00,5.0,WeatherDisplay:10.37,2013-02-17 12:02:00,
2013-02-17 07:07:00,23.6,14.6,29.79,WNW,301,12.7,12.7,68,0.00,CLR,,0.00,7.0,WeatherDisplay:10.37,2013-02-17 12:07:00,
2013-02-17 07:12:00,23.6,14.6,29.79,NW,311,10.4,10.4,68,0.00,CLR,,0.00,19.0,WeatherDisplay:10.37,2013-02-17 12:12:00,
2013-02-17 07:17:00,23.7,14.7,29.79,NW,311,13.8,13.8,68,0.00,CLR,,0.00,32.0,WeatherDisplay:10.37,2013-02-17 12:17:00,
2013-02-17 07:22:00,23.8,14.8,29.79,WNW,298,9.2,9.2,68,0.00,CLR,,0.00,47.0,WeatherDisplay:10.37,2013-02-17 12:22:00,
2013-02-17 07:27:00,23.9,15.2,29.79,WNW,300,12.0,12.0,69,0.00,CLR,,0.00,62.0,WeatherDisplay:10.37,2013-02-17 12:27:00,
2013-02-17 07:32:00,23.9,15.2,29.79,WNW,299,10.4,10.4,69,0.00,CLR,,0.00,76.0,WeatherDisplay:10.37,2013-02-17 12:32:00,
2013-02-17 07:37:00,24.0,15.3,29.79,WNW,302,15.0,15.0,69,0.00,CLR,,0.00,90.0,WeatherDisplay:10.37,2013-02-17 12:37:00,
2013-02-17 07:42:00,24.0,15.3,29.79,NW,310,12.7,12.7,69,0.00,CLR,,0.00,102.0,WeatherDisplay:10.37,2013-02-17 12:42:00,
2013-02-17 07:47:00,24.2,15.2,29.79,NW,309,16.1,16.1,68,0.00,CLR,,0.00,100.0,WeatherDisplay:10.37,2013-02-17 12:47:00,
2013-02-17 07:52:00,24.3,15.3,29.79,NNW,333,13.8,13.8,68,0.00,CLR,,0.00,127.0,WeatherDisplay:10.37,2013-02-17 12:52:00,
2013-02-17 07:57:00,24.4,15.0,29.79,NW,306,16.1,16.1,67,0.00,CLR,,0.00,148.0,WeatherDisplay:10.37,2013-02-17 12:57:00,
2013-02-17 08:02:00,24.5,15.1,29.80,NW,309,11.0,11.0,67,0.00,CLR,,0.00,163.0,WeatherDisplay:10.37,2013-02-17 13:02:00,
2013-02-17 08:07:00,24.7,14.9,29.80,NW,306,17.3,17.3,66,0.00,CLR,,0.00,169.0,WeatherDisplay:10.37,2013-02-17 13:07:00,
2013-02-17 08:12:00,24.7,14.9,29.80,NW,307,11.5,11.5,66,0.00,CLR,,0.00,193.0,WeatherDisplay:10.37,2013-02-17 13:12:00,
2013-02-17 08:17:00,24.9,14.8,29.81,NW,314,18.4,18.4,65,0.00,CLR,,0.00,206.0,WeatherDisplay:10.37,2013-02-17 13:17:00,
2013-02-17 08:22:00,24.9,14.1,29.81,NW,308,12.7,12.7,63,0.00,CLR,,0.00,220.0,WeatherDisplay:10.37,2013-02-17 13:22:00,
2013-02-17 08:27:00,25.0,14.2,29.81,WNW,299,18.4,18.4,63,0.00,CLR,,0.00,237.0,WeatherDisplay:10.37,2013-02-17 13:27:00,
2013-02-17 08:32:00,25.1,13.9,29.81,NW,325,16.1,16.1,62,0.00,CLR,,0.00,255.0,WeatherDisplay:10.37,2013-02-17 13:32:00,
2013-02-17 08:37:00,25.3,13.7,29.81,NW,309,20.0,20.0,61,0.00,CLR,,0.00,260.0,WeatherDisplay:10.37,2013-02-17 13:37:00,
2013-02-17 08:42:00,25.3,13.3,29.81,NW,311,13.8,13.8,60,0.00,CLR,,0.00,283.0,WeatherDisplay:10.37,2013-02-17 13:42:00,
2013-02-17 08:47:00,25.5,13.5,29.81,WNW,296,17.3,17.3,60,0.00,CLR,,0.00,297.0,WeatherDisplay:10.37,2013-02-17 13:47:00,
2013-02-17 08:52:00,25.6,14.0,29.81,NW,325,15.0,15.0,61,0.00,CLR,,0.00,309.0,WeatherDisplay:10.37,2013-02-17 13:52:00,
2013-02-17 08:57:00,25.7,13.7,29.81,WNW,287,19.6,19.6,60,0.00,CLR,,0.00,329.0,WeatherDisplay:10.37,2013-02-17 13:57:00,
2013-02-17 09:02:00,25.7,13.7,29.81,NW,306,16.1,16.1,60,0.00,CLR,,0.00,341.0,WeatherDisplay:10.37,2013-02-17 14:02:00,
2013-02-17 09:07:00,26.0,13.6,29.81,WNW,303,12.7,12.7,59,0.00,CLR,,0.00,352.0,WeatherDisplay:10.37,2013-02-17 14:07:00,
2013-02-17 09:12:00,26.0,13.2,29.81,NW,317,18.4,18.4,58,0.00,CLR,,0.00,376.0,WeatherDisplay:10.37,2013-02-17 14:12:00,
2013-02-17 09:17:00,26.2,13.8,29.81,WNW,292,15.0,15.0,59,0.00,CLR,,0.00,383.0,WeatherDisplay:10.37,2013-02-17 14:17:00,
2013-02-17 09:22:00,26.3,13.9,29.81,WNW,284,15.0,15.0,59,0.00,CLR,,0.00,396.0,WeatherDisplay:10.37,2013-02-17 14:22:00,
2013-02-17 09:27:00,26.4,13.6,29.82,NW,321,19.6,19.6,58,0.00,CLR,,0.00,413.0,WeatherDisplay:10.37,2013-02-17 14:27:00,
2013-02-17 09:32:00,26.5,13.7,29.82,NW,309,17.3,17.3,58,0.00,CLR,,0.00,431.0,WeatherDisplay:10.37,2013-02-17 14:32:00,
2013-02-17 09:37:00,26.6,13.4,29.82,NW,306,19.6,19.6,57,0.00,CLR,,0.00,438.0,WeatherDisplay:10.37,2013-02-17 14:37:00,
2013-02-17 09:42:00,26.6,14.2,29.82,NW,309,13.8,13.8,59,0.00,CLR,,0.00,489.0,WeatherDisplay:10.37,2013-02-17 14:42:00,
2013-02-17 09:47:00,26.6,13.4,29.82,WNW,285,15.0,15.0,57,0.00,CLR,,0.00,93.0,WeatherDisplay:10.37,2013-02-17 14:47:00,
2013-02-17 09:52:00,26.6,13.8,29.82,NW,319,16.1,16.1,58,0.00,CLR,,0.00,527.0,WeatherDisplay:10.37,2013-02-17 14:52:00,
2013-02-17 09:57:00,26.4,13.2,29.82,NW,305,19.6,19.6,57,0.00,CLR,,0.00,109.0,WeatherDisplay:10.37,2013-02-17 14:57:00,
2013-02-17 10:02:00,26.6,13.4,29.82,WNW,290,20.7,20.7,57,0.00,FEW,,0.00,550.0,WeatherDisplay:10.37,2013-02-17 15:02:00,
2013-02-17 10:07:00,26.7,13.9,29.82,WNW,295,18.4,18.4,58,0.00,FEW,,0.00,629.0,WeatherDisplay:10.37,2013-02-17 15:07:00,
2013-02-17 10:12:00,26.7,13.9,29.82,NW,312,21.9,21.9,58,0.00,FEW,,0.00,670.0,WeatherDisplay:10.37,2013-02-17 15:12:00,
2013-02-17 10:17:00,26.9,13.3,29.83,NW,305,15.0,15.0,56,0.00,FEW,,0.00,220.0,WeatherDisplay:10.37,2013-02-17 15:17:00,
2013-02-17 10:22:00,27.2,14.0,29.83,NW,309,19.0,19.0,57,0.00,FEW,,0.00,214.0,WeatherDisplay:10.37,2013-02-17 15:22:00,
2013-02-17 10:27:00,26.7,13.1,29.83,WNW,294,19.6,19.6,56,0.00,FEW,,0.00,285.0,WeatherDisplay:10.37,2013-02-17 15:27:00,
2013-02-17 10:32:00,26.2,12.6,29.83,NW,305,24.2,24.2,56,0.00,FEW,,0.00,230.0,WeatherDisplay:10.37,2013-02-17 15:32:00,
2013-02-17 10:37:00,26.7,13.1,29.84,NW,315,20.7,20.7,56,0.00,FEW,,0.00,657.0,WeatherDisplay:10.37,2013-02-17 15:37:00,
2013-02-17 10:42:00,27.4,13.7,29.84,NW,306,18.4,18.4,56,0.00,FEW,,0.00,657.0,WeatherDisplay:10.37,2013-02-17 15:42:00,
2013-02-17 10:47:00,27.5,13.8,29.84,WNW,301,17.3,17.3,56,0.00,FEW,,0.00,657.0,WeatherDisplay:10.37,2013-02-17 15:47:00,
2013-02-17 10:52:00,27.2,13.6,29.84,NW,317,17.3,17.3,56,0.00,FEW,,0.00,199.0,WeatherDisplay:10.37,2013-02-17 15:52:00,
2013-02-17 10:57:00,26.9,13.3,29.84,NW,306,19.6,19.6,56,0.00,FEW,,0.00,195.0,WeatherDisplay:10.37,2013-02-17 15:57:00,
2013-02-17 11:02:00,26.5,12.5,29.84,WNW,300,21.9,21.9,55,0.00,BKN,,0.00,193.0,WeatherDisplay:10.37,2013-02-17 16:02:00,
2013-02-17 11:07:00,26.6,13.0,29.84,NW,305,16.1,16.1,56,0.00,BKN,,0.00,664.0,WeatherDisplay:10.37,2013-02-17 16:07:00,
2013-02-17 11:12:00,27.4,13.3,29.84,NW,310,17.3,17.3,55,0.00,BKN,,0.00,309.0,WeatherDisplay:10.37,2013-02-17 16:12:00,
2013-02-17 11:17:00,27.3,13.7,29.84,NW,309,21.9,21.9,56,0.00,BKN,,0.00,399.0,WeatherDisplay:10.37,2013-02-17 16:17:00,
2013-02-17 11:22:00,27.4,13.7,29.84,NW,308,19.6,19.6,56,0.00,BKN,,0.00,640.0,WeatherDisplay:10.37,2013-02-17 16:22:00,
2013-02-17 11:27:00,27.7,12.8,29.84,NW,319,19.6,19.6,53,0.00,BKN,,0.00,183.0,WeatherDisplay:10.37,2013-02-17 16:27:00,
2013-02-17 11:32:00,27.6,13.9,29.84,NW,315,13.8,13.8,56,0.00,BKN,,0.00,724.0,WeatherDisplay:10.37,2013-02-17 16:32:00,
2013-02-17 11:37:00,28.0,13.9,29.84,NW,315,20.7,20.7,55,0.00,BKN,,0.00,253.0,WeatherDisplay:10.37,2013-02-17 16:37:00,
2013-02-17 11:42:00,27.8,13.7,29.84,NW,318,14.0,14.0,55,0.00,BKN,,0.00,654.0,WeatherDisplay:10.37,2013-02-17 16:42:00,
2013-02-17 11:47:00,28.0,14.3,29.84,WNW,302,19.0,19.0,56,0.00,BKN,,0.00,239.0,WeatherDisplay:10.37,2013-02-17 16:47:00,
2013-02-17 11:53:00,27.9,13.8,29.84,WNW,290,19.6,19.6,55,0.00,BKN,,0.00,334.0,WeatherDisplay:10.37,2013-02-17 16:53:00,
2013-02-17 11:58:00,27.4,14.1,29.84,North,349,19.6,19.6,57,0.00,BKN,,0.00,315.0,WeatherDisplay:10.37,2013-02-17 16:58:00,
2013-02-17 12:03:00,27.1,15.0,29.84,NW,317,16.0,16.0,60,0.00,OVC,,0.00,276.0,WeatherDisplay:10.37,2013-02-17 17:03:00,
2013-02-17 12:08:00,27.1,14.7,29.84,NW,306,18.4,18.4,59,0.00,OVC,,0.00,438.0,WeatherDisplay:10.37,2013-02-17 17:08:00,
2013-02-17 12:13:00,27.4,13.7,29.84,WNW,293,19.6,19.6,56,0.00,OVC,,0.00,227.0,WeatherDisplay:10.37,2013-02-17 17:13:00,
2013-02-17 12:18:00,27.5,13.8,29.84,NW,321,19.0,19.0,56,0.00,OVC,,0.00,339.0,WeatherDisplay:10.37,2013-02-17 17:18:00,
2013-02-17 12:23:00,27.6,13.5,29.84,WNW,292,20.7,20.7,55,0.00,OVC,,0.00,232.0,WeatherDisplay:10.37,2013-02-17 17:23:00,
2013-02-17 12:28:00,27.3,13.2,29.84,NNW,327,19.6,19.6,55,0.00,OVC,,0.00,142.0,WeatherDisplay:10.37,2013-02-17 17:28:00,
2013-02-17 12:33:00,27.3,14.1,29.84,NW,305,17.3,17.3,57,0.00,OVC,,0.00,209.0,WeatherDisplay:10.37,2013-02-17 17:33:00,
2013-02-17 12:38:00,27.4,14.1,29.84,NW,312,16.1,16.1,57,0.00,OVC,,0.00,167.0,WeatherDisplay:10.37,2013-02-17 17:38:00,
2013-02-17 12:43:00,27.5,13.8,29.84,NW,310,15.0,16.4,56,0.00,OVC,,0.00,149.0,WeatherDisplay:10.37,2013-02-17 17:43:00,
2013-02-17 12:48:00,27.4,12.9,29.84,NW,313,19.6,19.6,54,0.00,OVC,,0.00,146.0,WeatherDisplay:10.37,2013-02-17 17:48:00,
2013-02-17 12:53:00,27.6,13.1,29.83,NW,309,19.6,19.6,54,0.00,OVC,,0.00,747.0,WeatherDisplay:10.37,2013-02-17 17:53:00,
2013-02-17 12:58:00,28.4,13.0,29.83,WNW,297,14.0,14.0,52,0.00,OVC,,0.00,213.0,WeatherDisplay:10.37,2013-02-17 17:58:00,
2013-02-17 13:03:00,28.4,13.4,29.83,NW,309,17.3,17.3,53,0.00,BKN,,0.00,211.0,WeatherDisplay:10.37,2013-02-17 18:03:00,
2013-02-17 13:08:00,28.3,12.5,29.83,WNW,299,16.1,16.1,51,0.00,BKN,,0.00,700.0,WeatherDisplay:10.37,2013-02-17 18:08:00,
2013-02-17 13:13:00,28.4,12.6,29.83,WNW,303,13.8,14.3,51,0.00,BKN,,0.00,251.0,WeatherDisplay:10.37,2013-02-17 18:13:00,
2013-02-17 13:18:00,28.1,12.7,29.84,NW,314,15.0,15.0,52,0.00,BKN,,0.00,149.0,WeatherDisplay:10.37,2013-02-17 18:18:00,
2013-02-17 13:23:00,28.0,13.1,29.83,NW,313,19.6,19.6,53,0.00,BKN,,0.00,255.0,WeatherDisplay:10.37,2013-02-17 18:23:00,
2013-02-17 13:28:00,28.2,12.8,29.84,NW,313,20.7,20.7,52,0.00,BKN,,0.00,239.0,WeatherDisplay:10.37,2013-02-17 18:28:00,
2013-02-17 13:33:00,28.1,13.1,29.83,WNW,286,19.6,19.6,53,0.00,BKN,,0.00,227.0,WeatherDisplay:10.37,2013-02-17 18:33:00,
2013-02-17 13:38:00,28.8,13.8,29.84,WNW,294,17.3,17.3,53,0.00,BKN,,0.00,487.0,WeatherDisplay:10.37,2013-02-17 18:38:00,
2013-02-17 13:43:00,28.5,14.4,29.84,NW,311,19.6,19.6,55,0.00,BKN,,0.00,598.0,WeatherDisplay:10.37,2013-02-17 18:43:00,
2013-02-17 13:48:00,28.7,15.0,29.84,NW,314,13.8,13.8,56,0.00,BKN,,0.00,687.0,WeatherDisplay:10.37,2013-02-17 18:48:00,
2013-02-17 13:53:00,29.2,15.8,29.84,WNW,294,18.4,18.4,57,0.00,BKN,,0.00,652.0,WeatherDisplay:10.37,2013-02-17 18:53:00,
2013-02-17 13:58:00,29.6,17.4,29.84,WSW,255,18.4,18.4,60,0.00,BKN,,0.00,793.0,WeatherDisplay:10.37,2013-02-17 18:58:00,
2013-02-17 14:03:00,29.6,18.5,29.84,WNW,284,11.5,11.5,63,0.00,-SN,,0.00,749.0,WeatherDisplay:10.37,2013-02-17 19:03:00,
2013-02-17 14:08:00,29.2,18.5,29.84,West,270,13.8,13.8,64,0.00,-SN,,0.00,694.0,WeatherDisplay:10.37,2013-02-17 19:08:00,
2013-02-17 14:13:00,29.2,17.8,29.84,West,277,15.0,15.0,62,0.00,-SN,,0.00,287.0,WeatherDisplay:10.37,2013-02-17 19:13:00,
2013-02-17 14:18:00,29.1,17.3,29.84,WNW,302,16.1,16.1,61,0.00,-SN,,0.00,585.0,WeatherDisplay:10.37,2013-02-17 19:18:00,
2013-02-17 14:23:00,28.9,16.7,29.84,NW,313,15.0,15.0,60,0.00,-SN,,0.00,98.0,WeatherDisplay:10.37,2013-02-17 19:23:00,
2013-02-17 14:28:00,28.3,15.4,29.84,WNW,292,15.0,15.0,58,0.00,-SN,,0.00,172.0,WeatherDisplay:10.37,2013-02-17 19:28:00,
2013-02-17 14:33:00,28.6,14.9,29.84,NW,305,18.4,18.4,56,0.00,-SN,,0.00,656.0,WeatherDisplay:10.37,2013-02-17 19:33:00,
2013-02-17 14:38:00,29.4,14.8,29.85,NW,317,26.5,26.5,54,0.00,-SN,,0.00,642.0,WeatherDisplay:10.37,2013-02-17 19:38:00,
2013-02-17 14:43:00,29.6,18.9,29.85,NW,319,10.4,10.4,64,0.00,-SN,,0.00,664.0,WeatherDisplay:10.37,2013-02-17 19:43:00,
2013-02-17 14:48:00,28.3,20.4,29.85,NW,315,16.1,16.1,72,0.00,-SN,,0.00,221.0,WeatherDisplay:10.37,2013-02-17 19:48:00,
2013-02-17 14:53:00,27.1,19.9,29.85,NW,313,11.5,11.5,74,0.00,-SN,,0.00,206.0,WeatherDisplay:10.37,2013-02-17 19:53:00,
2013-02-17 14:58:00,26.5,19.0,29.85,NW,315,16.1,16.1,73,0.00,-SN,,0.00,227.0,WeatherDisplay:10.37,2013-02-17 19:58:00,
2013-02-17 15:03:00,26.7,19.2,29.86,NNW,335,16.1,16.1,73,0.00,FEW,,0.00,227.0,WeatherDisplay:10.37,2013-02-17 20:03:00,
2013-02-17 15:08:00,26.8,18.3,29.86,NW,311,13.8,13.8,70,0.00,FEW,,0.00,204.0,WeatherDisplay:10.37,2013-02-17 20:08:00,
2013-02-17 15:13:00,26.6,17.5,29.85,NW,304,18.0,18.0,68,0.00,FEW,,0.00,56.0,WeatherDisplay:10.37,2013-02-17 20:13:00,
2013-02-17 15:18:00,26.1,17.6,29.86,NW,304,19.6,19.6,70,0.00,FEW,,0.00,111.0,WeatherDisplay:10.37,2013-02-17 20:18:00,
2013-02-17 15:23:00,25.8,17.7,29.86,NW,317,17.3,17.3,71,0.00,FEW,,0.00,221.0,WeatherDisplay:10.37,2013-02-17 20:23:00,
2013-02-17 15:28:00,26.6,17.8,29.85,NW,304,13.8,13.8,69,0.00,FEW,,0.00,281.0,WeatherDisplay:10.37,2013-02-17 20:28:00,
2013-02-17 15:33:00,27.0,17.1,29.85,WNW,303,17.3,17.3,66,0.00,FEW,,0.00,123.0,WeatherDisplay:10.37,2013-02-17 20:33:00,
2013-02-17 15:38:00,26.9,16.0,29.86,NW,310,19.6,19.6,63,0.00,FEW,,0.00,58.0,WeatherDisplay:10.37,2013-02-17 20:38:00,
2013-02-17 15:43:00,26.6,15.3,29.86,NW,317,24.2,24.2,62,0.00,FEW,,0.00,116.0,WeatherDisplay:10.37,2013-02-17 20:43:00,
2013-02-17 15:48:00,27.0,15.3,29.86,WNW,303,18.4,18.4,61,0.00,FEW,,0.00,385.0,WeatherDisplay:10.37,2013-02-17 20:48:00,
2013-02-17 15:53:00,28.0,15.1,29.86,WNW,303,23.0,23.0,58,0.00,FEW,,0.00,388.0,WeatherDisplay:10.37,2013-02-17 20:53:00,
2013-02-17 15:58:00,28.3,13.3,29.86,NW,305,20.7,20.7,53,0.00,FEW,,0.00,169.0,WeatherDisplay:10.37,2013-02-17 20:58:00,
2013-02-17 16:03:00,28.3,12.9,29.86,West,280,18.4,18.4,52,0.00,FEW,,0.00,357.0,WeatherDisplay:10.37,2013-02-17 21:03:00,
2013-02-17 16:08:00,28.6,12.7,29.86,WNW,292,24.2,24.2,51,0.00,FEW,,0.00,186.0,WeatherDisplay:10.37,2013-02-17 21:08:00,
2013-02-17 16:13:00,28.3,11.6,29.86,NW,309,19.6,19.6,49,0.00,FEW,,0.00,251.0,WeatherDisplay:10.37,2013-02-17 21:13:00,
2013-02-17 16:18:00,28.2,11.5,29.86,WNW,300,20.7,20.7,49,0.00,FEW,,0.00,149.0,WeatherDisplay:10.37,2013-02-17 21:18:00,
2013-02-17 16:23:00,27.8,10.6,29.86,NW,306,19.6,19.6,48,0.00,FEW,,0.00,49.0,WeatherDisplay:10.37,2013-02-17 21:23:00,
2013-02-17 16:28:00,27.6,10.4,29.86,WNW,294,18.4,18.4,48,0.00,FEW,,0.00,42.0,WeatherDisplay:10.37,2013-02-17 21:28:00,
2013-02-17 16:33:00,27.7,11.5,29.86,WNW,302,18.4,18.4,50,0.00,FEW,,0.00,53.0,WeatherDisplay:10.37,2013-02-17 21:33:00,
2013-02-17 16:38:00,27.7,11.0,29.86,NW,315,19.6,19.6,49,0.00,FEW,,0.00,98.0,WeatherDisplay:10.37,2013-02-17 21:38:00,
2013-02-17 16:43:00,27.9,10.2,29.87,WNW,300,23.0,23.0,47,0.00,FEW,,0.00,104.0,WeatherDisplay:10.37,2013-02-17 21:43:00,
2013-02-17 16:48:00,28.1,9.5,29.87,WNW,299,21.9,21.9,45,0.00,FEW,,0.00,127.0,WeatherDisplay:10.37,2013-02-17 21:48:00,
2013-02-17 16:53:00,28.1,9.0,29.87,NW,318,26.5,26.5,44,0.00,FEW,,0.00,84.0,WeatherDisplay:10.37,2013-02-17 21:53:00,
2013-02-17 16:58:00,27.6,7.5,29.88,WNW,297,27.0,27.0,42,0.00,FEW,,0.00,65.0,WeatherDisplay:10.37,2013-02-17 21:58:00,
2013-02-17 17:03:00,27.4,7.8,29.88,West,267,23.0,23.0,43,0.00,BKN,,0.00,35.0,WeatherDisplay:10.37,2013-02-17 22:03:00,
2013-02-17 17:08:00,27.1,7.0,29.88,NW,306,26.5,26.5,42,0.00,BKN,,0.00,46.0,WeatherDisplay:10.37,2013-02-17 22:08:00,
2013-02-17 17:13:00,27.0,7.4,29.89,WNW,298,29.0,29.0,43,0.00,BKN,,0.00,51.0,WeatherDisplay:10.37,2013-02-17 22:13:00,
2013-02-17 17:18:00,26.9,7.9,29.89,WNW,299,25.3,25.3,44,0.00,BKN,,0.00,33.0,WeatherDisplay:10.37,2013-02-17 22:18:00,
2013-02-17 17:23:00,26.8,7.3,29.89,WNW,290,24.2,24.2,43,0.00,BKN,,0.00,39.0,WeatherDisplay:10.37,2013-02-17 22:23:00,
2013-02-17 17:28:00,26.7,7.7,29.89,WNW,296,28.0,28.0,44,0.00,BKN,,0.00,33.0,WeatherDisplay:10.37,2013-02-17 22:28:00,
2013-02-17 17:33:00,26.6,7.6,29.90,NW,313,21.9,21.9,44,0.00,BKN,,0.00,14.0,WeatherDisplay:10.37,2013-02-17 22:33:00,
2013-02-17 17:38:00,26.5,7.5,29.90,WNW,297,26.0,26.0,44,0.00,BKN,,0.00,11.0,WeatherDisplay:10.37,2013-02-17 22:38:00,
2013-02-17 17:43:00,26.3,8.3,29.90,WNW,294,22.0,22.0,46,0.00,BKN,,0.00,0.0,WeatherDisplay:10.37,2013-02-17 22:43:00,
2013-02-17 17:48:00,26.1,8.6,29.91,West,268,19.6,19.6,47,0.00,BKN,,0.00,0.0,WeatherDisplay:10.37,2013-02-17 22:48:00,
2013-02-17 17:53:00,26.0,8.0,29.91,WNW,294,26.5,26.5,46,0.00,BKN,,0.00,0.0,WeatherDisplay:10.37,2013-02-17 22:53:00,
2013-02-17 17:58:00,25.9,7.4,29.92,WNW,285,24.2,24.2,45,0.00,BKN,,0.00,0.0,WeatherDisplay:10.37,2013-02-17 22:58:00,
2013-02-17 18:03:00,25.8,7.8,29.92,NW,319,23.0,23.0,46,0.00,BKN,,0.00,0.0,WeatherDisplay:10.37,2013-02-17 23:03:00,
2013-02-17 18:08:00,25.8,7.8,29.93,WNW,292,24.2,24.2,46,0.00,BKN,,0.00,0.0,WeatherDisplay:10.37,2013-02-17 23:08:00,
2013-02-17 18:13:00,25.7,7.7,29.93,West,273,19.6,19.6,46,0.00,BKN,,0.00,0.0,WeatherDisplay:10.37,2013-02-17 23:13:00,
2013-02-17 18:18:00,25.7,7.7,29.93,NW,308,25.3,25.3,46,0.00,BKN,,0.00,0.0,WeatherDisplay:10.37,2013-02-17 23:18:00,
2013-02-17 18:23:00,25.8,7.8,29.94,NW,304,17.0,17.0,46,0.00,BKN,,0.00,0.0,WeatherDisplay:10.37,2013-02-17 23:23:00,
2013-02-17 18:28:00,25.7,8.2,29.94,WNW,297,16.1,16.1,47,0.00,BKN,,0.00,0.0,WeatherDisplay:10.37,2013-02-17 23:28:00,
2013-02-17 18:33:00,25.6,8.1,29.94,WNW,295,19.6,19.6,47,0.00,BKN,,0.00,0.0,WeatherDisplay:10.37,2013-02-17 23:33:00,
2013-02-17 18:38:00,25.4,7.5,29.95,NW,316,18.0,18.0,46,0.00,BKN,,0.00,0.0,WeatherDisplay:10.37,2013-02-17 23:38:00,
2013-02-17 18:43:00,25.3,7.9,29.95,WNW,303,21.9,21.9,47,0.00,BKN,,0.00,0.0,WeatherDisplay:10.37,2013-02-17 23:43:00,
2013-02-17 18:48:00,25.3,8.3,29.96,NW,311,13.0,13.0,48,0.00,BKN,,0.00,0.0,WeatherDisplay:10.37,2013-02-17 23:48:00,
2013-02-17 18:53:00,25.1,7.7,29.96,NW,309,19.6,19.6,47,0.00,BKN,,0.00,0.0,WeatherDisplay:10.37,2013-02-17 23:53:00,
2013-02-17 18:58:00,24.9,7.5,29.96,NW,305,17.3,17.3,47,0.00,BKN,,0.00,0.0,WeatherDisplay:10.37,2013-02-17 23:58:00,
2013-02-17 19:03:00,24.8,7.9,29.96,WNW,293,17.3,17.3,48,0.00,CLR,,0.00,0.0,WeatherDisplay:10.37,2013-02-18 00:03:00,
2013-02-17 19:08:00,24.7,7.8,29.97,NW,306,19.6,19.6,48,0.00,CLR,,0.00,0.0,WeatherDisplay:10.37,2013-02-18 00:08:00,
2013-02-17 19:13:00,24.6,8.1,29.97,NW,312,21.9,21.9,49,0.00,CLR,,0.00,0.0,WeatherDisplay:10.37,2013-02-18 00:13:00,
2013-02-17 19:18:00,24.6,8.6,29.97,WNW,290,18.4,18.4,50,0.00,CLR,,0.00,0.0,WeatherDisplay:10.37,2013-02-18 00:18:00,
2013-02-17 19:23:00,24.6,8.6,29.98,WNW,297,16.1,16.1,50,0.00,CLR,,0.00,0.0,WeatherDisplay:10.37,2013-02-18 00:23:00,
2013-02-17 19:28:00,24.5,8.5,29.98,WNW,296,19.0,19.0,50,0.00,CLR,,0.00,0.0,WeatherDisplay:10.37,2013-02-18 00:28:00,
2013-02-17 19:33:00,24.5,8.0,29.98,WNW,300,19.6,19.6,49,0.00,CLR,,0.00,0.0,WeatherDisplay:10.37,2013-02-18 00:33:00,
2013-02-17 19:38:00,24.5,8.0,29.98,NW,309,21.9,21.9,49,0.00,CLR,,0.00,0.0,WeatherDisplay:10.37,2013-02-18 00:38:00,
2013-02-17 19:43:00,24.3,8.3,29.98,WNW,294,11.5,11.5,50,0.00,CLR,,0.00,0.0,WeatherDisplay:10.37,2013-02-18 00:43:00,
2013-02-17 19:48:00,24.1,8.1,29.98,WNW,300,16.1,16.1,50,0.00,CLR,,0.00,0.0,WeatherDisplay:10.37,2013-02-18 00:48:00,
2013-02-17 19:53:00,24.0,7.6,29.99,NW,304,19.6,19.6,49,0.00,CLR,,0.00,0.0,WeatherDisplay:10.37,2013-02-18 00:53:00,
2013-02-17 19:58:00,24.0,6.7,29.99,WNW,290,27.6,27.6,47,0.00,CLR,,0.00,0.0,WeatherDisplay:10.37,2013-02-18 00:58:00,
2013-02-17 20:03:00,23.9,7.0,29.99,NW,312,21.9,21.9,48,0.00,SCT,,0.00,0.0,WeatherDisplay:10.37,2013-02-18 01:03:00,
2013-02-17 20:08:00,23.8,6.5,30.00,NW,304,23.0,23.0,47,0.00,SCT,,0.00,0.0,WeatherDisplay:10.37,2013-02-18 01:08:00,
2013-02-17 20:13:00,23.8,6.0,30.00,NW,312,26.5,26.5,46,0.00,SCT,,0.00,0.0,WeatherDisplay:10.37,2013-02-18 01:13:00,
2013-02-17 20:18:00,23.7,5.9,30.00,West,275,26.5,26.5,46,0.00,SCT,,0.00,0.0,WeatherDisplay:10.37,2013-02-18 01:18:00,
2013-02-17 20:23:00,23.6,5.8,30.01,WNW,294,26.0,26.0,46,0.00,SCT,,0.00,0.0,WeatherDisplay:10.37,2013-02-18 01:23:00,
2013-02-17 20:28:00,23.5,6.2,30.01,NW,315,23.0,23.0,47,0.00,SCT,,0.00,0.0,WeatherDisplay:10.37,2013-02-18 01:28:00,
2013-02-17 20:33:00,23.4,5.6,30.01,NW,314,24.2,24.2,46,0.00,SCT,,0.00,0.0,WeatherDisplay:10.37,2013-02-18 01:33:00,
2013-02-17 20:38:00,23.4,6.1,30.02,WNW,302,24.0,24.0,47,0.00,SCT,,0.00,0.0,WeatherDisplay:10.37,2013-02-18 01:38:00,
2013-02-17 20:43:00,23.3,5.5,30.02,NW,312,25.3,25.3,46,0.00,SCT,,0.00,0.0,WeatherDisplay:10.37,2013-02-18 01:43:00,
2013-02-17 20:48:00,23.3,6.0,30.02,WNW,286,26.5,26.5,47,0.00,SCT,,0.00,0.0,WeatherDisplay:10.37,2013-02-18 01:48:00,
2013-02-17 20:53:00,23.2,5.9,30.03,NW,316,16.1,16.1,47,0.00,SCT,,0.00,0.0,WeatherDisplay:10.37,2013-02-18 01:53:00,
2013-02-17 20:58:00,23.1,6.3,30.03,WNW,298,25.3,25.3,48,0.00,SCT,,0.00,0.0,WeatherDisplay:10.37,2013-02-18 01:58:00,
2013-02-17 21:03:00,23.0,6.7,30.03,NW,321,19.6,19.6,49,0.00,OVC,,0.00,0.0,WeatherDisplay:10.37,2013-02-18 02:03:00,
2013-02-17 21:08:00,23.0,6.7,30.04,NNW,327,20.7,20.7,49,0.00,OVC,,0.00,0.0,WeatherDisplay:10.37,2013-02-18 02:08:00,
2013-02-17 21:13:00,23.0,7.1,30.04,NW,306,23.0,23.0,50,0.00,OVC,,0.00,0.0,WeatherDisplay:10.37,2013-02-18 02:13:00,
2013-02-17 21:18:00,23.0,7.1,30.04,WNW,296,19.6,19.6,50,0.00,OVC,,0.00,0.0,WeatherDisplay:10.37,2013-02-18 02:18:00,
2013-02-17 21:23:00,22.9,6.1,30.04,NW,306,23.0,23.0,48,0.00,OVC,,0.00,0.0,WeatherDisplay:10.37,2013-02-18 02:23:00,
2013-02-17 21:28:00,22.8,6.0,30.05,NW,317,26.5,26.5,48,0.00,OVC,,0.00,0.0,WeatherDisplay:10.37,2013-02-18 02:28:00,
2013-02-17 21:33:00,22.7,6.4,30.05,WNW,299,24.2,24.2,49,0.00,OVC,,0.00,0.0,WeatherDisplay:10.37,2013-02-18 02:33:00,
2013-02-17 21:38:00,22.6,5.8,30.06,NW,321,23.0,23.0,48,0.00,OVC,,0.00,0.0,WeatherDisplay:10.37,2013-02-18 02:38:00,
2013-02-17 21:43:00,22.6,5.8,30.06,NW,311,21.9,21.9,48,0.00,OVC,,0.00,0.0,WeatherDisplay:10.37,2013-02-18 02:43:00,
2013-02-17 21:48:00,22.5,6.2,30.06,NW,310,20.7,20.7,49,0.00,OVC,,0.00,0.0,WeatherDisplay:10.37,2013-02-18 02:48:00,
2013-02-17 21:53:00,22.4,6.5,30.06,WNW,300,21.0,21.0,50,0.00,OVC,,0.00,0.0,WeatherDisplay:10.37,2013-02-18 02:53:00,
2013-02-17 21:58:00,22.2,6.4,30.06,NW,311,18.4,18.4,50,0.00,OVC,,0.00,0.0,WeatherDisplay:10.37,2013-02-18 02:58:00,
2013-02-17 22:03:00,22.2,6.4,30.06,NW,317,23.0,23.0,50,0.00,OVC,,0.00,0.0,WeatherDisplay:10.37,2013-02-18 03:03:00,
2013-02-17 22:08:00,22.1,6.3,30.07,WNW,288,18.4,18.4,50,0.00,OVC,,0.00,0.0,WeatherDisplay:10.37,2013-02-18 03:08:00,
2013-02-17 22:13:00,22.0,6.6,30.07,NW,314,19.6,19.6,51,0.00,OVC,,0.00,0.0,WeatherDisplay:10.37,2013-02-18 03:13:00,
2013-02-17 22:18:00,21.9,6.1,30.07,WNW,285,19.6,19.6,50,0.00,OVC,,0.00,0.0,WeatherDisplay:10.37,2013-02-18 03:18:00,
2013-02-17 22:23:00,21.9,6.9,30.07,WNW,300,17.3,17.3,52,0.00,OVC,,0.00,0.0,WeatherDisplay:10.37,2013-02-18 03:23:00,
2013-02-17 22:28:00,21.8,6.8,30.08,WNW,290,15.0,15.0,52,0.00,OVC,,0.00,0.0,WeatherDisplay:10.37,2013-02-18 03:28:00,
2013-02-17 22:33:00,21.7,6.8,30.08,WNW,295,20.7,20.7,52,0.00,OVC,,0.00,0.0,WeatherDisplay:10.37,2013-02-18 03:33:00,
2013-02-17 22:38:00,21.7,7.2,30.08,WNW,284,19.6,19.6,53,0.00,OVC,,0.00,0.0,WeatherDisplay:10.37,2013-02-18 03:38:00,
2013-02-17 22:43:00,21.7,6.8,30.08,NW,313,17.3,17.3,52,0.00,OVC,,0.00,0.0,WeatherDisplay:10.37,2013-02-18 03:43:00,
2013-02-17 22:48:00,21.6,6.7,30.08,NW,315,21.0,21.0,52,0.00,OVC,,0.00,0.0,WeatherDisplay:10.37,2013-02-18 03:48:00,
2013-02-17 22:53:00,21.6,6.2,30.08,NW,317,16.1,16.1,51,0.00,OVC,,0.00,0.0,WeatherDisplay:10.37,2013-02-18 03:53:00,
2013-02-17 22:58:00,21.5,6.6,30.09,WNW,298,21.0,21.0,52,0.00,OVC,,0.00,0.0,WeatherDisplay:10.37,2013-02-18 03:58:00,
2013-02-17 23:03:00,21.4,6.0,30.09,WNW,296,26.5,26.5,51,0.00,FEW,,0.00,0.0,WeatherDisplay:10.37,2013-02-18 04:03:00,
2013-02-17 23:08:00,21.3,6.0,30.09,WNW,299,19.6,19.6,51,0.00,FEW,,0.00,0.0,WeatherDisplay:10.37,2013-02-18 04:08:00,
2013-02-17 23:10:00,21.2,5.9,30.09,WNW,297,17.0,22.0,51,0.00,FEW,,0.00,0.0,WeatherDisplay:10.37,2013-02-18 04:10:00,
2013-02-17 23:14:00,21.1,5.8,30.09,WNW,298,19.6,19.6,51,0.00,FEW,,0.00,0.0,WeatherDisplay:10.37,2013-02-18 04:14:00,
2013-02-17 23:19:00,20.9,6.0,30.09,WNW,293,15.0,15.0,52,0.00,FEW,,0.00,0.0,WeatherDisplay:10.37,2013-02-18 04:19:00,
2013-02-17 23:24:00,20.9,6.0,30.09,NW,312,14.0,14.0,52,0.00,FEW,,0.00,0.0,WeatherDisplay:10.37,2013-02-18 04:24:00,
2013-02-17 23:29:00,20.9,6.0,30.09,NW,304,21.9,21.9,52,0.00,FEW,,0.00,0.0,WeatherDisplay:10.37,2013-02-18 04:29:00,
2013-02-17 23:34:00,21.0,5.7,30.09,WNW,296,23.0,23.0,51,0.00,FEW,,0.00,0.0,WeatherDisplay:10.37,2013-02-18 04:34:00,
2013-02-17 23:39:00,21.0,6.1,30.09,WNW,285,19.6,19.6,52,0.00,FEW,,0.00,0.0,WeatherDisplay:10.37,2013-02-18 04:39:00,
2013-02-17 23:44:00,20.8,6.3,30.10,NW,306,11.5,11.5,53,0.00,FEW,,0.00,0.0,WeatherDisplay:10.37,2013-02-18 04:44:00,
2013-02-17 23:49:00,20.6,6.6,30.10,WNW,287,19.6,19.6,54,0.00,FEW,,0.00,0.0,WeatherDisplay:10.37,2013-02-18 04:49:00,
2013-02-17 23:54:00,20.8,6.7,30.10,NW,309,19.6,19.6,54,0.00,FEW,,0.00,0.0,WeatherDisplay:10.37,2013-02-18 04:54:00,
2013-02-17 23:59:00,20.8,6.7,30.11,WNW,294,16.1,16.1,54,0.00,FEW,,0.00,0.0,WeatherDisplay:10.37,2013-02-18 04:59:00,